Time,TemperatureF,DewpointF,PressureIn,WindDirection,WindDirectionDegrees,WindSpeedMPH,WindSpeedGustMPH,Humidity,HourlyPrecipIn,Conditions,Clouds,dailyrainin,SoftwareType,DateUTC
2013-05-16 00:07:00,68.7,57.7,28.85,WNW,292,0.0,0.0,68,0.00,,---,0.00,VWS V14.00,2013-05-16 04:07:00,
2013-05-16 00:10:00,68.7,57.7,28.85,WNW,292,0.0,0.0,68,0.00,,---,0.00,VWS V14.00,2013-05-16 04:10:00,
2013-05-16 00:13:00,68.5,57.6,28.85,WNW,292,0.0,0.0,68,0.00,,---,0.00,VWS V14.00,2013-05-16 04:13:00,
2013-05-16 00:19:00,68.4,57.8,28.85,WNW,292,0.0,0.0,69,0.00,,---,0.00,VWS V14.00,2013-05-16 04:19:00,
2013-05-16 00:25:00,68.4,57.8,28.85,East,90,0.0,0.0,69,0.00,,---,0.00,VWS V14.00,2013-05-16 04:25:00,
2013-05-16 00:28:00,68.2,57.6,28.85,WNW,292,0.0,1.3,69,0.00,,---,0.00,VWS V14.00,2013-05-16 04:28:00,
2013-05-16 00:34:00,68.0,57.5,28.85,NW,315,0.0,1.3,69,0.00,,---,0.00,VWS V14.00,2013-05-16 04:34:00,
2013-05-16 00:40:00,67.8,57.3,28.85,NW,315,0.0,1.3,69,0.00,,---,0.00,VWS V14.00,2013-05-16 04:40:00,
2013-05-16 00:43:00,67.8,57.7,28.85,NW,315,0.0,1.3,70,0.00,,---,0.00,VWS V14.00,2013-05-16 04:43:00,
2013-05-16 00:49:00,67.6,57.5,28.85,WNW,292,0.0,1.3,70,0.00,,---,0.00,VWS V14.00,2013-05-16 04:49:00,
2013-05-16 00:55:00,67.5,57.3,28.85,WNW,292,0.0,1.3,70,0.00,,---,0.00,VWS V14.00,2013-05-16 04:55:00,
2013-05-16 01:01:00,67.5,57.3,28.85,WNW,292,0.0,0.0,70,0.00,,---,0.00,VWS V14.00,2013-05-16 05:01:00,
2013-05-16 01:07:00,67.1,57.0,28.85,WNW,292,0.0,0.0,70,0.00,,---,0.00,VWS V14.00,2013-05-16 05:07:00,
2013-05-16 01:13:00,67.1,57.0,28.85,WNW,292,0.0,0.0,70,0.00,,---,0.00,VWS V14.00,2013-05-16 05:13:00,
2013-05-16 01:19:00,66.9,56.8,28.85,North,0,0.0,0.0,70,0.00,,---,0.00,VWS V14.00,2013-05-16 05:19:00,
2013-05-16 01:25:00,66.7,57.0,28.85,North,0,0.0,0.0,71,0.00,,---,0.00,VWS V14.00,2013-05-16 05:25:00,
2013-05-16 01:31:00,66.6,56.9,28.85,North,0,0.0,0.0,71,0.00,,---,0.00,VWS V14.00,2013-05-16 05:31:00,
2013-05-16 01:37:00,66.4,56.7,28.85,North,0,0.0,0.0,71,0.00,,---,0.00,VWS V14.00,2013-05-16 05:37:00,
2013-05-16 01:43:00,66.2,56.5,28.85,NE,45,0.0,0.0,71,0.00,,---,0.00,VWS V14.00,2013-05-16 05:43:00,
2013-05-16 01:49:00,66.4,56.7,28.85,NNE,22,0.0,0.0,71,0.00,,---,0.00,VWS V14.00,2013-05-16 05:49:00,
2013-05-16 01:55:00,66.4,56.7,28.85,NNE,22,0.0,0.0,71,0.00,,---,0.00,VWS V14.00,2013-05-16 05:55:00,
2013-05-16 02:01:00,66.0,56.7,28.85,NNE,22,0.0,0.0,72,0.00,,---,0.00,VWS V14.00,2013-05-16 06:01:00,
2013-05-16 02:07:00,65.7,56.0,28.85,NNE,22,0.0,0.0,71,0.00,,---,0.00,VWS V14.00,2013-05-16 06:07:00,
2013-05-16 02:13:00,65.7,56.0,28.85,NNE,22,0.0,0.0,71,0.00,,---,0.00,VWS V14.00,2013-05-16 06:13:00,
2013-05-16 02:19:00,65.7,56.0,28.85,NNE,22,0.0,0.0,71,0.00,,---,0.00,VWS V14.00,2013-05-16 06:19:00,
2013-05-16 02:25:00,65.7,56.0,28.85,NNE,22,0.0,0.0,71,0.00,,---,0.00,VWS V14.00,2013-05-16 06:25:00,
2013-05-16 02:31:00,65.5,56.2,28.85,NNE,22,0.0,0.0,72,0.00,,---,0.00,VWS V14.00,2013-05-16 06:31:00,
2013-05-16 02:37:00,65.1,55.9,28.85,NNE,22,0.0,0.0,72,0.00,,---,0.00,VWS V14.00,2013-05-16 06:37:00,
2013-05-16 02:43:00,64.9,55.7,28.85,NNE,22,0.0,0.0,72,0.00,,---,0.00,VWS V14.00,2013-05-16 06:43:00,
2013-05-16 02:49:00,64.6,55.4,28.85,NNE,22,0.0,0.0,72,0.00,,---,0.00,VWS V14.00,2013-05-16 06:49:00,
2013-05-16 02:55:00,64.4,55.2,28.85,NNE,22,0.0,0.0,72,0.00,,---,0.00,VWS V14.00,2013-05-16 06:55:00,
2013-05-16 03:01:00,64.4,55.2,28.85,NNE,22,0.0,0.0,72,0.00,,---,0.00,VWS V14.00,2013-05-16 07:01:00,
2013-05-16 03:07:00,64.0,54.8,28.85,NNE,22,0.0,0.0,72,0.00,,---,0.00,VWS V14.00,2013-05-16 07:07:00,
2013-05-16 03:13:00,63.9,55.0,28.85,NNE,22,0.0,0.0,73,0.00,,---,0.00,VWS V14.00,2013-05-16 07:13:00,
2013-05-16 03:19:00,63.9,55.0,28.85,NNE,22,0.0,0.0,73,0.00,,---,0.00,VWS V14.00,2013-05-16 07:19:00,
2013-05-16 03:25:00,63.9,55.0,28.85,NNE,22,0.0,0.0,73,0.00,,---,0.00,VWS V14.00,2013-05-16 07:25:00,
2013-05-16 03:31:00,63.7,54.9,28.85,NNE,22,0.0,0.0,73,0.00,,---,0.00,VWS V14.00,2013-05-16 07:31:00,
2013-05-16 03:37:00,63.3,54.5,28.85,NNE,22,0.0,0.0,73,0.00,,---,0.00,VWS V14.00,2013-05-16 07:37:00,
2013-05-16 03:43:00,63.3,54.5,28.85,NNE,22,0.0,0.0,73,0.00,,---,0.00,VWS V14.00,2013-05-16 07:43:00,
2013-05-16 03:49:00,63.1,54.3,28.85,NNE,22,0.0,0.0,73,0.00,,---,0.00,VWS V14.00,2013-05-16 07:49:00,
2013-05-16 03:56:00,63.1,54.3,28.85,NNE,22,0.0,0.0,73,0.00,,---,0.00,VWS V14.00,2013-05-16 07:56:00,
2013-05-16 04:02:00,63.0,54.2,28.85,NNE,22,0.0,0.0,73,0.00,,---,0.00,VWS V14.00,2013-05-16 08:02:00,
2013-05-16 04:08:00,63.0,54.2,28.85,NNE,22,0.0,0.0,73,0.00,,---,0.00,VWS V14.00,2013-05-16 08:08:00,
2013-05-16 04:14:00,63.0,54.2,28.85,NNE,22,0.0,0.0,73,0.00,,---,0.00,VWS V14.00,2013-05-16 08:14:00,
2013-05-16 04:20:00,62.8,54.0,28.85,NNE,22,0.0,0.0,73,0.00,,---,0.00,VWS V14.00,2013-05-16 08:20:00,
2013-05-16 04:26:00,62.6,54.2,28.85,NNE,22,0.0,0.0,74,0.00,,---,0.00,VWS V14.00,2013-05-16 08:26:00,
2013-05-16 04:32:00,62.4,54.0,28.85,NNE,22,0.0,0.0,74,0.00,,---,0.00,VWS V14.00,2013-05-16 08:32:00,
2013-05-16 04:38:00,62.2,53.9,28.85,NNE,22,0.0,0.0,74,0.00,,---,0.00,VWS V14.00,2013-05-16 08:38:00,
2013-05-16 04:44:00,62.2,54.2,28.85,NNE,22,0.0,0.0,75,0.00,,---,0.00,VWS V14.00,2013-05-16 08:44:00,
2013-05-16 04:50:00,62.2,54.2,28.85,NNE,22,0.0,0.0,75,0.00,,---,0.00,VWS V14.00,2013-05-16 08:50:00,
2013-05-16 04:56:00,62.2,54.2,28.85,NNE,22,0.0,0.0,75,0.00,,---,0.00,VWS V14.00,2013-05-16 08:56:00,
2013-05-16 05:02:00,62.2,54.6,28.85,NNE,22,0.0,0.0,76,0.00,,---,0.00,VWS V14.00,2013-05-16 09:02:00,
2013-05-16 05:08:00,62.2,54.6,28.85,NNE,22,0.0,0.0,76,0.00,,---,0.00,VWS V14.00,2013-05-16 09:08:00,
2013-05-16 05:14:00,62.4,54.8,28.85,NNE,22,0.0,0.0,76,0.00,,---,0.00,VWS V14.00,2013-05-16 09:14:00,
2013-05-16 05:21:00,62.4,54.8,28.85,NNE,22,0.0,0.0,76,0.00,,---,0.00,VWS V14.00,2013-05-16 09:21:00,
2013-05-16 05:27:00,62.2,54.6,28.85,NNE,22,0.0,0.0,76,0.00,,---,0.00,VWS V14.00,2013-05-16 09:27:00,
2013-05-16 05:33:00,62.2,54.6,28.85,NNE,22,0.0,0.0,76,0.00,,---,0.00,VWS V14.00,2013-05-16 09:33:00,
2013-05-16 05:39:00,62.4,54.8,28.85,NNE,22,0.0,0.0,76,0.00,,---,0.00,VWS V14.00,2013-05-16 09:39:00,
2013-05-16 05:45:00,62.4,55.1,28.85,NNE,22,0.0,0.0,77,0.00,,---,0.00,VWS V14.00,2013-05-16 09:45:00,
2013-05-16 05:51:00,62.4,55.1,28.85,NNE,22,0.0,0.0,77,0.00,,---,0.00,VWS V14.00,2013-05-16 09:51:00,
2013-05-16 05:57:00,62.1,54.8,28.85,NNW,338,0.0,0.0,77,0.00,,---,0.00,VWS V14.00,2013-05-16 09:57:00,
2013-05-16 06:03:00,62.1,55.1,28.85,WNW,292,0.0,0.0,78,0.00,,---,0.00,VWS V14.00,2013-05-16 10:03:00,
2013-05-16 06:09:00,62.1,55.1,28.85,WNW,292,0.0,0.0,78,0.00,,---,0.00,VWS V14.00,2013-05-16 10:09:00,
2013-05-16 06:15:00,62.1,55.1,28.85,NW,315,0.0,0.0,78,0.00,,---,0.00,VWS V14.00,2013-05-16 10:15:00,
2013-05-16 06:21:00,62.2,55.3,28.85,NW,315,0.0,0.0,78,0.00,,---,0.00,VWS V14.00,2013-05-16 10:21:00,
2013-05-16 06:27:00,62.1,55.5,28.85,NW,315,0.0,0.0,79,0.00,,---,0.00,VWS V14.00,2013-05-16 10:27:00,
2013-05-16 06:33:00,62.2,55.7,28.85,NW,315,0.0,0.0,79,0.00,,---,0.00,VWS V14.00,2013-05-16 10:33:00,
2013-05-16 06:39:00,62.2,55.7,28.85,NW,315,0.0,0.0,79,0.00,,---,0.00,VWS V14.00,2013-05-16 10:39:00,
2013-05-16 06:45:00,62.1,55.5,28.85,NW,315,0.0,0.0,79,0.00,,---,0.00,VWS V14.00,2013-05-16 10:45:00,
2013-05-16 06:51:00,62.1,55.5,28.85,NW,315,0.0,0.0,79,0.00,,---,0.00,VWS V14.00,2013-05-16 10:51:00,
2013-05-16 06:57:00,62.2,55.7,28.85,NW,315,0.0,0.0,79,0.00,,---,0.00,VWS V14.00,2013-05-16 10:57:00,
2013-05-16 07:03:00,62.2,56.0,28.85,NW,315,0.0,0.0,80,0.00,,---,0.00,VWS V14.00,2013-05-16 11:03:00,
2013-05-16 07:09:00,62.2,56.0,28.88,NW,315,0.0,0.0,80,0.00,,---,0.00,VWS V14.00,2013-05-16 11:09:00,
2013-05-16 07:15:00,62.2,56.0,28.88,NW,315,0.0,0.0,80,0.00,,---,0.00,VWS V14.00,2013-05-16 11:15:00,
2013-05-16 07:21:00,62.4,56.2,28.85,NW,315,0.0,0.0,80,0.00,,---,0.00,VWS V14.00,2013-05-16 11:21:00,
2013-05-16 07:27:00,62.6,56.0,28.85,NW,315,0.0,0.0,79,0.00,,---,0.00,VWS V14.00,2013-05-16 11:27:00,
2013-05-16 07:33:00,62.6,56.3,28.85,NW,315,0.0,0.0,80,0.00,,---,0.00,VWS V14.00,2013-05-16 11:33:00,
2013-05-16 07:39:00,62.8,56.5,28.88,NW,315,0.0,0.0,80,0.00,,---,0.00,VWS V14.00,2013-05-16 11:39:00,
2013-05-16 07:45:00,63.0,56.7,28.88,NW,315,0.0,0.0,80,0.00,,---,0.00,VWS V14.00,2013-05-16 11:45:00,
2013-05-16 07:51:00,63.1,56.9,28.88,NW,315,0.0,0.0,80,0.00,,---,0.00,VWS V14.00,2013-05-16 11:51:00,
2013-05-16 07:57:00,63.3,57.0,28.88,NW,315,0.0,0.0,80,0.00,,---,0.00,VWS V14.00,2013-05-16 11:57:00,
2013-05-16 08:04:00,63.5,57.2,28.88,NW,315,0.0,0.0,80,0.00,,---,0.00,VWS V14.00,2013-05-16 12:04:00,
2013-05-16 08:10:00,64.2,57.9,28.88,NW,315,0.0,0.0,80,0.00,,---,0.00,VWS V14.00,2013-05-16 12:10:00,
2013-05-16 08:16:00,64.6,58.3,28.88,WNW,292,0.0,0.0,80,0.00,,---,0.00,VWS V14.00,2013-05-16 12:16:00,
2013-05-16 08:22:00,65.1,58.8,28.88,WNW,292,0.0,0.0,80,0.00,,---,0.00,VWS V14.00,2013-05-16 12:22:00,
2013-05-16 08:28:00,65.7,59.0,28.88,WNW,292,0.0,0.0,79,0.00,,---,0.00,VWS V14.00,2013-05-16 12:28:00,
2013-05-16 08:34:00,66.0,59.3,28.88,West,270,0.0,0.0,79,0.00,,---,0.00,VWS V14.00,2013-05-16 12:34:00,
2013-05-16 08:40:00,66.2,59.2,28.88,West,270,0.0,0.0,78,0.00,,---,0.00,VWS V14.00,2013-05-16 12:40:00,
2013-05-16 08:46:00,66.9,59.8,28.88,SW,225,0.0,1.1,78,0.00,,---,0.00,VWS V14.00,2013-05-16 12:46:00,
2013-05-16 08:52:00,67.1,60.0,28.88,SW,225,0.0,1.1,78,0.00,,---,0.00,VWS V14.00,2013-05-16 12:52:00,
2013-05-16 08:58:00,67.3,60.5,28.88,SW,225,0.0,1.1,79,0.00,,---,0.00,VWS V14.00,2013-05-16 12:58:00,
2013-05-16 09:04:00,67.6,60.9,28.88,SW,225,0.0,0.0,79,0.00,,---,0.00,VWS V14.00,2013-05-16 13:04:00,
2013-05-16 09:10:00,68.0,61.2,28.88,SW,225,0.0,0.0,79,0.00,,---,0.00,VWS V14.00,2013-05-16 13:10:00,
2013-05-16 09:16:00,68.7,61.6,28.88,SW,225,0.0,0.0,78,0.00,,---,0.00,VWS V14.00,2013-05-16 13:16:00,
2013-05-16 09:22:00,69.4,62.7,28.88,SW,225,0.0,0.0,79,0.00,,---,0.00,VWS V14.00,2013-05-16 13:22:00,
2013-05-16 09:28:00,70.0,62.5,28.88,SW,225,0.0,0.9,77,0.00,,---,0.00,VWS V14.00,2013-05-16 13:28:00,
2013-05-16 09:34:00,70.5,63.3,28.88,SW,225,0.0,1.1,78,0.00,,---,0.00,VWS V14.00,2013-05-16 13:34:00,
2013-05-16 09:40:00,71.1,63.9,28.88,SW,225,0.0,1.1,78,0.00,,---,0.00,VWS V14.00,2013-05-16 13:40:00,
2013-05-16 09:46:00,71.6,64.0,28.88,ESE,112,0.9,2.0,77,0.00,,---,0.00,VWS V14.00,2013-05-16 13:46:00,
2013-05-16 09:52:00,72.3,64.3,28.91,SSE,158,1.3,2.0,76,0.00,,---,0.00,VWS V14.00,2013-05-16 13:52:00,
2013-05-16 09:58:00,72.7,64.7,28.91,SE,135,0.0,2.7,76,0.00,,---,0.00,VWS V14.00,2013-05-16 13:58:00,
2013-05-16 10:04:00,73.6,65.6,28.91,ESE,112,0.9,0.9,76,0.00,,---,0.00,VWS V14.00,2013-05-16 14:04:00,
2013-05-16 10:10:00,74.5,65.3,28.91,SE,135,0.0,3.1,73,0.00,,---,0.00,VWS V14.00,2013-05-16 14:10:00,
2013-05-16 10:16:00,75.0,65.4,28.91,North,0,0.0,3.1,72,0.00,,---,0.00,VWS V14.00,2013-05-16 14:16:00,
2013-05-16 10:22:00,75.6,65.1,28.91,ESE,112,0.0,3.1,70,0.00,,---,0.00,VWS V14.00,2013-05-16 14:22:00,
2013-05-16 10:28:00,75.6,65.1,28.91,ESE,112,1.1,3.1,70,0.00,,---,0.00,VWS V14.00,2013-05-16 14:28:00,
2013-05-16 10:34:00,75.4,64.9,28.91,ENE,68,0.0,3.1,70,0.00,,---,0.00,VWS V14.00,2013-05-16 14:34:00,
2013-05-16 10:40:00,75.6,65.1,28.91,South,180,0.0,3.1,70,0.00,,---,0.00,VWS V14.00,2013-05-16 14:40:00,
2013-05-16 10:46:00,75.4,65.3,28.91,SE,135,0.0,3.1,71,0.00,,---,0.00,VWS V14.00,2013-05-16 14:46:00,
2013-05-16 10:52:00,75.7,65.7,28.88,SE,135,0.9,3.1,71,0.00,,---,0.00,VWS V14.00,2013-05-16 14:52:00,
2013-05-16 10:58:00,75.9,65.8,28.88,SE,135,0.0,3.1,71,0.00,,---,0.00,VWS V14.00,2013-05-16 14:58:00,
2013-05-16 11:04:00,75.9,65.8,28.88,SW,225,0.0,0.0,71,0.00,,---,0.00,VWS V14.00,2013-05-16 15:04:00,
2013-05-16 11:10:00,75.9,65.8,28.88,SW,225,0.0,0.0,71,0.00,,---,0.00,VWS V14.00,2013-05-16 15:10:00,
2013-05-16 11:16:00,75.9,65.8,28.88,West,270,0.0,1.3,71,0.00,,---,0.00,VWS V14.00,2013-05-16 15:16:00,
2013-05-16 11:22:00,75.9,65.4,28.88,SSW,202,0.0,1.6,70,0.00,,---,0.00,VWS V14.00,2013-05-16 15:22:00,
2013-05-16 11:28:00,75.9,65.8,28.88,East,90,1.1,2.0,71,0.00,,---,0.00,VWS V14.00,2013-05-16 15:28:00,
2013-05-16 11:34:00,75.9,65.0,28.88,SW,225,0.0,2.0,69,0.00,,---,0.00,VWS V14.00,2013-05-16 15:34:00,
2013-05-16 11:40:00,75.9,65.4,28.88,NE,45,0.9,2.0,70,0.00,,---,0.00,VWS V14.00,2013-05-16 15:40:00,
2013-05-16 11:46:00,75.9,65.4,28.88,South,180,0.0,2.9,70,0.00,,---,0.00,VWS V14.00,2013-05-16 15:46:00,
2013-05-16 11:52:00,76.1,65.2,28.88,ESE,112,1.6,2.9,69,0.00,,---,0.00,VWS V14.00,2013-05-16 15:52:00,
2013-05-16 11:58:00,76.1,65.2,28.88,East,90,0.0,2.9,69,0.00,,---,0.00,VWS V14.00,2013-05-16 15:58:00,
2013-05-16 12:04:00,76.1,65.2,28.88,ESE,112,2.2,2.2,69,0.00,,---,0.00,VWS V14.00,2013-05-16 16:04:00,
2013-05-16 12:10:00,75.9,65.0,28.88,SW,225,0.0,2.2,69,0.00,,---,0.00,VWS V14.00,2013-05-16 16:10:00,
2013-05-16 12:16:00,75.7,64.9,28.88,NNE,22,0.0,2.2,69,0.00,,---,0.00,VWS V14.00,2013-05-16 16:16:00,
2013-05-16 12:22:00,75.6,65.1,28.88,ESE,112,0.0,2.2,70,0.00,,---,0.00,VWS V14.00,2013-05-16 16:22:00,
2013-05-16 12:28:00,75.4,64.9,28.88,SSW,202,0.9,2.2,70,0.00,,---,0.00,VWS V14.00,2013-05-16 16:28:00,
2013-05-16 12:34:00,75.2,64.8,28.88,WSW,248,1.1,2.2,70,0.00,,---,0.00,VWS V14.00,2013-05-16 16:34:00,
2013-05-16 12:40:00,75.2,64.8,28.88,ESE,112,0.0,2.9,70,0.00,,---,0.00,VWS V14.00,2013-05-16 16:40:00,
2013-05-16 12:46:00,75.2,64.8,28.88,ESE,112,1.1,2.9,70,0.00,,---,0.00,VWS V14.00,2013-05-16 16:46:00,
2013-05-16 12:52:00,75.2,64.3,28.88,ESE,112,1.6,2.9,69,0.00,,---,0.00,VWS V14.00,2013-05-16 16:52:00,
2013-05-16 12:58:00,75.0,64.2,28.88,WSW,248,0.9,3.6,69,0.00,,---,0.00,VWS V14.00,2013-05-16 16:58:00,
2013-05-16 13:04:00,75.0,64.6,28.88,SW,225,0.9,3.1,70,0.00,,---,0.00,VWS V14.00,2013-05-16 17:04:00,
2013-05-16 13:10:00,75.0,64.6,28.88,WSW,248,1.6,3.1,70,0.00,,---,0.00,VWS V14.00,2013-05-16 17:10:00,
2013-05-16 13:16:00,75.2,64.8,28.88,NNW,338,2.7,3.4,70,0.00,,---,0.00,VWS V14.00,2013-05-16 17:16:00,
2013-05-16 13:22:00,75.2,64.8,28.88,WNW,292,2.0,3.4,70,0.00,,---,0.00,VWS V14.00,2013-05-16 17:22:00,
2013-05-16 13:28:00,75.2,64.8,28.88,West,270,0.0,3.4,70,0.00,,---,0.00,VWS V14.00,2013-05-16 17:28:00,
2013-05-16 13:35:00,75.2,64.8,28.88,SW,225,0.0,3.4,70,0.00,,---,0.00,VWS V14.00,2013-05-16 17:35:00,
2013-05-16 13:41:00,75.2,64.3,28.88,South,180,0.0,3.4,69,0.00,,---,0.00,VWS V14.00,2013-05-16 17:41:00,
2013-05-16 13:47:00,75.0,64.6,28.88,NW,315,4.9,4.9,70,0.00,,---,0.00,VWS V14.00,2013-05-16 17:47:00,
2013-05-16 13:53:00,74.8,64.4,28.88,SW,225,0.0,4.9,70,0.00,,---,0.00,VWS V14.00,2013-05-16 17:53:00,
2013-05-16 13:59:00,75.0,64.6,28.88,South,180,0.9,4.9,70,0.00,,---,0.00,VWS V14.00,2013-05-16 17:59:00,
2013-05-16 14:05:00,75.0,64.6,28.88,WSW,248,1.6,2.9,70,0.00,,---,0.00,VWS V14.00,2013-05-16 18:05:00,
2013-05-16 14:11:00,75.2,64.8,28.88,East,90,1.6,2.9,70,0.00,,---,0.00,VWS V14.00,2013-05-16 18:11:00,
2013-05-16 14:17:00,75.4,64.9,28.88,South,180,0.9,2.9,70,0.00,,---,0.00,VWS V14.00,2013-05-16 18:17:00,
2013-05-16 14:23:00,75.6,65.1,28.85,West,270,2.0,2.9,70,0.00,,---,0.00,VWS V14.00,2013-05-16 18:23:00,
2013-05-16 14:29:00,75.9,65.0,28.85,ESE,112,2.0,2.9,69,0.00,,---,0.00,VWS V14.00,2013-05-16 18:29:00,
2013-05-16 14:35:00,76.5,65.5,28.85,SE,135,2.2,2.9,69,0.00,,---,0.00,VWS V14.00,2013-05-16 18:35:00,
2013-05-16 14:41:00,76.6,65.7,28.85,NNE,22,1.6,3.1,69,0.00,,---,0.00,VWS V14.00,2013-05-16 18:41:00,
2013-05-16 14:47:00,77.0,65.6,28.85,South,180,0.0,3.4,68,0.00,,---,0.00,VWS V14.00,2013-05-16 18:47:00,
2013-05-16 14:53:00,77.5,65.7,28.85,NE,45,1.1,3.4,67,0.00,,---,0.00,VWS V14.00,2013-05-16 18:53:00,
2013-05-16 14:59:00,77.9,66.1,28.85,NNW,338,2.0,3.4,67,0.00,,---,0.00,VWS V14.00,2013-05-16 18:59:00,
2013-05-16 15:05:00,78.1,66.2,28.85,West,270,1.3,3.4,67,0.00,,---,0.00,VWS V14.00,2013-05-16 19:05:00,
2013-05-16 15:11:00,78.4,66.6,28.85,WSW,248,2.7,3.4,67,0.00,,---,0.00,VWS V14.00,2013-05-16 19:11:00,
2013-05-16 15:17:00,78.6,66.8,28.85,East,90,0.9,3.4,67,0.00,,---,0.00,VWS V14.00,2013-05-16 19:17:00,
2013-05-16 15:23:00,79.0,66.7,28.85,ESE,112,1.6,3.4,66,0.00,,---,0.00,VWS V14.00,2013-05-16 19:23:00,
2013-05-16 15:29:00,79.3,67.0,28.85,NW,315,2.2,3.4,66,0.00,,---,0.00,VWS V14.00,2013-05-16 19:29:00,
2013-05-16 15:35:00,79.7,66.9,28.85,SSE,158,1.3,3.8,65,0.00,,---,0.00,VWS V14.00,2013-05-16 19:35:00,
2013-05-16 15:41:00,79.9,67.1,28.85,West,270,1.6,3.8,65,0.00,,---,0.00,VWS V14.00,2013-05-16 19:41:00,
2013-05-16 15:47:00,80.4,67.1,28.85,NE,45,1.1,3.8,64,0.00,,---,0.00,VWS V14.00,2013-05-16 19:47:00,
2013-05-16 15:53:00,80.4,67.6,28.85,SSE,158,3.4,3.8,65,0.00,,---,0.00,VWS V14.00,2013-05-16 19:53:00,
2013-05-16 15:59:00,80.4,65.8,28.85,South,180,1.1,3.8,61,0.00,,---,0.00,VWS V14.00,2013-05-16 19:59:00,
2013-05-16 16:05:00,80.4,65.8,28.85,SW,225,0.0,1.6,61,0.00,,---,0.00,VWS V14.00,2013-05-16 20:05:00,
2013-05-16 16:11:00,80.4,65.8,28.85,SSE,158,2.0,2.0,61,0.00,,---,0.00,VWS V14.00,2013-05-16 20:11:00,
2013-05-16 16:17:00,80.4,65.8,28.85,NW,315,0.9,2.5,61,0.00,,---,0.00,VWS V14.00,2013-05-16 20:17:00,
2013-05-16 16:23:00,80.6,66.4,28.82,East,90,0.0,3.6,62,0.00,,---,0.00,VWS V14.00,2013-05-16 20:23:00,
2013-05-16 16:29:00,80.6,65.4,28.82,ESE,112,1.3,3.6,60,0.00,,---,0.00,VWS V14.00,2013-05-16 20:29:00,
2013-05-16 16:35:00,80.8,65.1,28.82,East,90,0.9,3.6,59,0.00,,---,0.00,VWS V14.00,2013-05-16 20:35:00,
2013-05-16 16:41:00,81.0,65.8,28.82,WNW,292,2.0,3.6,60,0.00,,---,0.00,VWS V14.00,2013-05-16 20:41:00,
2013-05-16 16:47:00,81.3,65.6,28.82,SE,135,1.3,3.6,59,0.00,,---,0.00,VWS V14.00,2013-05-16 20:47:00,
2013-05-16 16:53:00,81.3,65.6,28.82,WNW,292,1.3,3.6,59,0.00,,---,0.00,VWS V14.00,2013-05-16 20:53:00,
2013-05-16 16:59:00,81.3,65.6,28.82,SE,135,1.6,6.3,59,0.00,,---,0.00,VWS V14.00,2013-05-16 20:59:00,
2013-05-16 17:05:00,81.3,65.6,28.82,SE,135,6.0,6.0,59,0.00,,---,0.00,VWS V14.00,2013-05-16 21:05:00,
2013-05-16 17:11:00,81.1,65.5,28.82,South,180,2.5,6.0,59,0.00,,---,0.00,VWS V14.00,2013-05-16 21:11:00,
2013-05-16 17:17:00,81.3,65.6,28.82,West,270,0.9,6.0,59,0.00,,---,0.00,VWS V14.00,2013-05-16 21:17:00,
2013-05-16 17:23:00,81.3,66.1,28.82,ESE,112,2.5,6.0,60,0.00,,---,0.00,VWS V14.00,2013-05-16 21:23:00,
2013-05-16 17:29:00,81.1,65.5,28.82,SW,225,0.0,6.0,59,0.00,,---,0.00,VWS V14.00,2013-05-16 21:29:00,
2013-05-16 17:35:00,81.3,65.6,28.82,NE,45,1.1,6.0,59,0.00,,---,0.00,VWS V14.00,2013-05-16 21:35:00,
2013-05-16 17:41:00,81.1,65.5,28.82,West,270,1.1,6.0,59,0.00,,---,0.00,VWS V14.00,2013-05-16 21:41:00,
2013-05-16 17:47:00,81.1,65.5,28.82,SE,135,2.5,6.0,59,0.00,,---,0.00,VWS V14.00,2013-05-16 21:47:00,
2013-05-16 17:53:00,81.0,65.3,28.82,South,180,0.9,6.0,59,0.00,,---,0.00,VWS V14.00,2013-05-16 21:53:00,
2013-05-16 17:59:00,81.1,65.5,28.82,WNW,292,4.3,6.0,59,0.00,,---,0.00,VWS V14.00,2013-05-16 21:59:00,
2013-05-16 18:05:00,81.0,65.3,28.82,North,0,0.0,4.3,59,0.00,,---,0.00,VWS V14.00,2013-05-16 22:05:00,
2013-05-16 18:11:00,81.0,65.3,28.82,WNW,292,1.6,4.7,59,0.00,,---,0.00,VWS V14.00,2013-05-16 22:11:00,
2013-05-16 18:17:00,80.8,65.1,28.82,WSW,248,3.4,4.7,59,0.00,,---,0.00,VWS V14.00,2013-05-16 22:17:00,
2013-05-16 18:23:00,80.6,65.0,28.82,SE,135,5.6,5.6,59,0.00,,---,0.00,VWS V14.00,2013-05-16 22:23:00,
2013-05-16 18:29:00,80.6,65.0,28.82,NW,315,1.3,5.6,59,0.00,,---,0.00,VWS V14.00,2013-05-16 22:29:00,
2013-05-16 18:35:00,80.4,65.3,28.82,ESE,112,2.2,5.6,60,0.00,,---,0.00,VWS V14.00,2013-05-16 22:35:00,
2013-05-16 18:41:00,80.2,65.6,28.82,WNW,292,0.9,5.6,61,0.00,,---,0.00,VWS V14.00,2013-05-16 22:41:00,
2013-05-16 18:48:00,80.1,65.4,28.82,West,270,0.0,5.6,61,0.00,,---,0.00,VWS V14.00,2013-05-16 22:48:00,
2013-05-16 18:54:00,79.9,65.7,28.82,NNW,338,3.4,5.6,62,0.00,,---,0.00,VWS V14.00,2013-05-16 22:54:00,
2013-05-16 19:00:00,79.5,64.9,28.82,ESE,112,1.3,5.6,61,0.00,,---,0.00,VWS V14.00,2013-05-16 23:00:00,
2013-05-16 19:06:00,79.3,65.2,28.82,SE,135,0.9,2.0,62,0.00,,---,0.00,VWS V14.00,2013-05-16 23:06:00,
2013-05-16 19:12:00,79.2,64.6,28.82,East,90,1.6,2.2,61,0.00,,---,0.00,VWS V14.00,2013-05-16 23:12:00,
2013-05-16 19:18:00,78.8,64.7,28.82,SW,225,2.5,4.9,62,0.00,,---,0.00,VWS V14.00,2013-05-16 23:18:00,
2013-05-16 19:24:00,78.6,64.5,28.82,North,0,2.9,4.9,62,0.00,,---,0.00,VWS V14.00,2013-05-16 23:24:00,
2013-05-16 19:30:00,78.4,64.3,28.82,West,270,2.0,4.9,62,0.00,,---,0.00,VWS V14.00,2013-05-16 23:30:00,
2013-05-16 19:36:00,78.1,64.5,28.82,West,270,0.0,4.9,63,0.00,,---,0.00,VWS V14.00,2013-05-16 23:36:00,
2013-05-16 19:42:00,77.7,64.1,28.82,WNW,292,0.0,4.9,63,0.00,,---,0.00,VWS V14.00,2013-05-16 23:42:00,
2013-05-16 19:48:00,77.4,63.8,28.82,SW,225,0.0,4.9,63,0.00,,---,0.00,VWS V14.00,2013-05-16 23:48:00,
2013-05-16 19:54:00,77.2,64.1,28.82,West,270,0.0,4.9,64,0.00,,---,0.00,VWS V14.00,2013-05-16 23:54:00,
2013-05-16 20:00:00,76.6,64.0,28.82,ESE,112,0.0,4.9,65,0.00,,---,0.00,VWS V14.00,2013-05-17 00:00:00,
2013-05-16 20:06:00,76.5,63.8,28.82,ESE,112,0.0,0.0,65,0.00,,---,0.00,VWS V14.00,2013-05-17 00:06:00,
2013-05-16 20:12:00,75.9,63.8,28.82,ESE,112,0.0,0.0,66,0.00,,---,0.00,VWS V14.00,2013-05-17 00:12:00,
2013-05-16 20:18:00,75.6,63.4,28.82,East,90,0.0,0.0,66,0.00,,---,0.00,VWS V14.00,2013-05-17 00:18:00,
2013-05-16 20:24:00,75.4,63.2,28.85,East,90,0.0,0.0,66,0.00,,---,0.00,VWS V14.00,2013-05-17 00:24:00,
2013-05-16 20:30:00,75.2,63.1,28.85,East,90,0.0,0.0,66,0.00,,---,0.00,VWS V14.00,2013-05-17 00:30:00,
2013-05-16 20:36:00,74.8,63.2,28.85,NE,45,0.0,0.0,67,0.00,,---,0.00,VWS V14.00,2013-05-17 00:36:00,
2013-05-16 20:42:00,74.5,63.2,28.85,NE,45,0.0,0.0,68,0.00,,---,0.00,VWS V14.00,2013-05-17 00:42:00,
2013-05-16 20:48:00,74.1,62.9,28.85,NNE,22,0.0,0.0,68,0.00,,---,0.00,VWS V14.00,2013-05-17 00:48:00,
2013-05-16 20:54:00,73.6,62.4,28.85,North,0,0.0,0.0,68,0.00,,---,0.00,VWS V14.00,2013-05-17 00:54:00,
2013-05-16 21:00:00,73.2,62.5,28.85,NNE,22,0.0,0.0,69,0.00,,---,0.00,VWS V14.00,2013-05-17 01:00:00,
2013-05-16 21:06:00,73.0,62.3,28.85,North,0,0.0,0.0,69,0.00,,---,0.00,VWS V14.00,2013-05-17 01:06:00,
2013-05-16 21:12:00,72.5,61.8,28.85,North,0,0.0,0.0,69,0.00,,---,0.00,VWS V14.00,2013-05-17 01:12:00,
2013-05-16 21:18:00,72.1,61.8,28.85,North,0,0.0,0.0,70,0.00,,---,0.00,VWS V14.00,2013-05-17 01:18:00,
2013-05-16 21:24:00,72.0,61.7,28.85,North,0,0.0,0.0,70,0.00,,---,0.00,VWS V14.00,2013-05-17 01:24:00,
2013-05-16 21:30:00,71.6,61.3,28.85,North,0,0.0,0.0,70,0.00,,---,0.00,VWS V14.00,2013-05-17 01:30:00,
2013-05-16 21:36:00,71.4,61.5,28.85,North,0,0.0,0.0,71,0.00,,---,0.00,VWS V14.00,2013-05-17 01:36:00,
2013-05-16 21:42:00,71.1,61.2,28.85,North,0,0.0,0.0,71,0.00,,---,0.00,VWS V14.00,2013-05-17 01:42:00,
2013-05-16 21:48:00,70.9,61.4,28.85,North,0,0.0,0.0,72,0.00,,---,0.00,VWS V14.00,2013-05-17 01:48:00,
2013-05-16 21:54:00,70.7,61.2,28.85,North,0,0.0,0.0,72,0.00,,---,0.00,VWS V14.00,2013-05-17 01:54:00,
2013-05-16 21:59:00,70.5,61.1,28.85,North,0,0.0,0.0,72,0.00,,---,0.00,VWS V14.00,2013-05-17 01:59:00,
2013-05-16 22:06:00,70.3,60.9,28.85,North,0,0.0,0.0,72,0.00,,---,0.00,VWS V14.00,2013-05-17 02:06:00,
2013-05-16 22:12:00,70.2,60.7,28.85,North,0,0.0,0.0,72,0.00,,---,0.00,VWS V14.00,2013-05-17 02:12:00,
2013-05-16 22:18:00,69.8,60.8,28.85,North,0,0.0,0.0,73,0.00,,---,0.00,VWS V14.00,2013-05-17 02:18:00,
2013-05-16 22:24:00,69.6,60.6,28.85,North,0,0.0,0.0,73,0.00,,---,0.00,VWS V14.00,2013-05-17 02:24:00,
2013-05-16 22:30:00,69.3,60.6,28.85,North,0,0.0,0.0,74,0.00,,---,0.00,VWS V14.00,2013-05-17 02:30:00,
2013-05-16 22:36:00,69.1,60.8,28.85,North,0,0.0,0.0,75,0.00,,---,0.00,VWS V14.00,2013-05-17 02:36:00,
2013-05-16 22:42:00,69.1,60.8,28.88,North,0,0.0,0.0,75,0.00,,---,0.00,VWS V14.00,2013-05-17 02:42:00,
2013-05-16 22:48:00,68.9,60.7,28.88,North,0,0.0,0.0,75,0.00,,---,0.00,VWS V14.00,2013-05-17 02:48:00,
2013-05-16 22:54:00,68.7,60.5,28.88,North,0,0.0,0.0,75,0.00,,---,0.00,VWS V14.00,2013-05-17 02:54:00,
2013-05-16 23:00:00,68.5,60.3,28.88,North,0,0.0,0.0,75,0.00,,---,0.00,VWS V14.00,2013-05-17 03:00:00,
2013-05-16 23:06:00,68.4,60.1,28.88,North,0,0.0,0.0,75,0.00,,---,0.00,VWS V14.00,2013-05-17 03:06:00,
2013-05-16 23:12:00,68.2,60.0,28.88,North,0,0.0,0.0,75,0.00,,---,0.00,VWS V14.00,2013-05-17 03:12:00,
2013-05-16 23:18:00,68.0,60.2,28.88,North,0,0.0,0.0,76,0.00,,---,0.00,VWS V14.00,2013-05-17 03:18:00,
2013-05-16 23:24:00,67.8,60.0,28.88,North,0,0.0,0.0,76,0.00,,---,0.00,VWS V14.00,2013-05-17 03:24:00,
2013-05-16 23:30:00,67.6,60.2,28.88,North,0,0.0,0.0,77,0.00,,---,0.00,VWS V14.00,2013-05-17 03:30:00,
2013-05-16 23:36:00,67.8,60.3,28.88,North,0,0.0,0.0,77,0.00,,---,0.00,VWS V14.00,2013-05-17 03:36:00,
2013-05-16 23:42:00,67.5,60.0,28.88,North,0,0.0,0.0,77,0.00,,---,0.00,VWS V14.00,2013-05-17 03:42:00,
2013-05-16 23:48:00,67.5,60.0,28.88,North,0,0.0,0.0,77,0.00,,---,0.00,VWS V14.00,2013-05-17 03:48:00,
2013-05-16 23:54:00,67.3,59.8,28.88,North,0,0.0,0.0,77,0.00,,---,0.00,VWS V14.00,2013-05-17 03:54:00,